This is the latest recevied weather packets stored in our database for station/object DC4THF-13. If no packets are shown the sender has not sent any weather packets the latest 1 day(s).
| Time | Temp. | Humidity | Pressure | Rain* | Wind** | Luminosity | Snow |
|---|---|---|---|---|---|---|---|
| 1778044938 | 11.11° C | 99% | 998.9 hPa | 1.78 mm | - | - | - |
| 1778044335 | 11.11° C | 99% | 998.9 hPa | 1.78 mm | - | - | - |
| 1778043792 | 11.11° C | 99% | 999 hPa | 1.52 mm | - | - | - |
| 1778043189 | 11.11° C | 99% | 999 hPa | 1.27 mm | - | - | - |
| 1778042586 | 11.11° C | 99% | 999.1 hPa | 1.02 mm | - | - | - |
| 1778040776 | 11.11° C | 99% | 999.3 hPa | 1.02 mm | - | - | - |
| 1778040173 | 11.11° C | 99% | 999.4 hPa | 1.27 mm | - | - | - |
| 1778038966 | 11.11° C | 99% | 999.6 hPa | 1.27 mm | - | - | - |
| 1778038363 | 11.67° C | 99% | 999.6 hPa | 1.27 mm | - | - | - |
| 1778037760 | 11.67° C | 99% | 999.8 hPa | 1.52 mm | - | - | - |
| 1778037157 | 11.67° C | 99% | 999.8 hPa | 1.78 mm | - | - | - |
| 1778036553 | 11.67° C | 99% | 1000 hPa | 1.78 mm | - | - | - |
| 1778035950 | 11.67° C | 99% | 1000.1 hPa | 2.03 mm | - | - | - |
| 1778035347 | 11.67° C | 99% | 1000 hPa | 2.03 mm | - | - | - |
| 1778034140 | 11.67° C | 99% | 1000.3 hPa | 2.03 mm | - | - | - |
| 1778033537 | 11.67° C | 98% | 1000.3 hPa | 1.78 mm | - | - | - |
| 1778032994 | 11.67° C | 98% | 1000.5 hPa | 1.52 mm | - | - | - |
| 1778032390 | 11.67° C | 98% | 1000.6 hPa | 1.52 mm | - | - | - |
| 1778031786 | 11.67° C | 97% | 1000.5 hPa | 1.78 mm | - | - | - |
| 1778031182 | 11.67° C | 97% | 1000.5 hPa | 2.29 mm | - | - | - |
| 1778030578 | 11.67° C | 96% | 1000.5 hPa | 2.03 mm | - | - | - |
| 1778029973 | 11.67° C | 96% | 1000.5 hPa | 2.03 mm | - | - | - |
| 1778028766 | 11.67° C | 95% | 1000.8 hPa | 2.29 mm | - | - | - |
| 1778027559 | 11.67° C | 94% | 1001 hPa | 1.52 mm | - | - | - |
| 1778026956 | 12.22° C | 94% | 1001.1 hPa | 1.27 mm | - | - | - |
* Rain latest hour (hover to see other rain measurements)
** Current wind speed in m/s (hover to see current wind gust speed)